Location: Unspecified
(40.5530°N, 74.2920°W)
Time: 18:30:14
(UTC+00:00)

Daily predictions for brighter satellites

Satellite Brightness Start Highest point End
(mag) Time Altitude Azimuth Time Altitude Azimuth Time Altitude Azimuth
Cosmos 2341 Rocket 4.5 22:34:14 10° SSW 22:40:27 70° W 22:46:46 10° N
SL-16 R/B 2.2 22:35:09 10° NNW 22:40:52 80° ENE 22:46:32 10° SSE
CZ-4 R/B 1.6 22:36:51 10° SSE 22:41:04 84° WSW 22:45:17 10° NNW
Cosmos 1727 Rocket 4.4 22:35:38 10° N 22:41:42 44° ENE 22:47:43 10° SSE
Meteor 1-28 Rocket 3.2 22:39:04 10° NNE 22:42:53 88° ESE 22:46:39 10° SSW
SL-8 R/B 4.2 22:38:39 10° SW 22:43:15 46° SE 22:47:53 10° ENE
Meteor 2-15 4.5 22:37:22 10° N 22:43:30 88° E 22:49:37 10° S
Cosmos 1400 Rocket 3.3 22:40:09 10° N 22:43:57 37° ENE 22:47:39 10° SE
Cosmos 1242 Rocket 4.3 22:45:30 10° SW 22:48:52 37° WNW 22:52:19 10° N
YAOGAN 1 2.5 22:44:51 10° SSE 22:49:10 82° ENE 22:53:31 10° N
Ariane Rocket 4.3 22:44:42 10° S 22:49:35 47° W 22:54:31 10° NNW
Cosmos 1908 4.5 22:47:38 10° SE 22:50:36 21° E 22:53:36 10° NE
Meteor 2-14 Rocket 4.5 22:47:21 10° S 22:53:27 88° E 22:59:34 10° N
SPOT 3 Rocket 3.6 22:50:16 10° SSE 22:55:20 58° ENE 23:00:27 10° N
Meteor 2-16 Rocket 4.4 22:50:25 10° S 22:56:30 80° E 23:02:38 10° N
CZ-4C R/B 3.6 22:55:40 10° SE 22:58:38 16° ESE 23:01:01 12° ENE
GP-B 3.0 22:54:16 10° N 22:58:42 70° E 23:03:07 10° S
H-2A R/B 4.2 22:56:41 10° ESE 22:59:20 18° ENE 23:02:01 10° NNE
SL-08 R/B 4.4 22:54:32 10° S 23:00:42 76° E 23:06:49 10° N
Cosmos 2056 Rocket 3.6 22:55:22 10° NNW 23:00:43 85° WSW 23:05:56 10° SSE
Cosmos-2242 4.0 22:57:25 10° SSW 23:01:34 51° W 23:05:44 10° N
METEOR-M 4.1 22:57:26 10° SSE 23:02:46 78° ENE 23:08:08 10° N
Tiangong 1 3.1 23:04:31 10° W 23:06:39 20° SSW 23:08:44 10° SSE
ALOS 2.4 23:04:52 10° SSE 23:09:23 52° ENE 23:13:56 10° N
Cosmos 2098 Rocket 4.3 23:06:33 10° SE 23:09:57 24° E 23:14:00 10° NNE
USA 267 4.0 23:05:42 11° ENE 23:11:17 32° SE 23:17:00 10° S
MONITOR-E 4.3 23:09:11 10° S 23:12:15 77° W 23:15:20 10° NNW
SKYMED 2 3.7 23:08:46 10° N 23:13:08 82° WNW 23:17:28 10° SSW
Cosmos 2151 2.9 23:09:53 10° N 23:14:10 71° E 23:18:24 10° SSE
NOAA 12 4.1 23:10:31 10° SSE 23:15:45 68° ENE 23:21:03 10° N
GRACE-2 3.6 23:14:18 10° SSE 23:16:50 58° E 23:19:23 10° N
Cosmos 1452 Rocket 3.6 23:13:22 10° N 23:18:33 56° ENE 23:23:41 10° SE
Cosmos 1743 Rocket 3.7 23:14:38 10° N 23:19:01 78° W 23:23:24 10° S
GRACE-1 3.5 23:16:31 10° S 23:19:04 68° E 23:21:39 10° N
SL-24 R/B - RUBIN 2 3.8 23:14:35 10° NNW 23:19:23 52° NE 23:22:53 15° SE
COSMOS 2428 3.5 23:14:56 10° N 23:19:57 31° ENE 23:23:13 18° ESE
BREEZE-M DEB (TANK) 2.7 23:20:53 10° W 23:23:01 36° NNW 23:23:54 22° NNE
Cosmos 2333 Rocket 3.6 23:19:08 10° N 23:23:10 19° NE 23:24:25 18° ENE
Cosmos 2360 Rocket 2.1 23:18:08 10° NNW 23:23:49 73° ENE 23:29:28 10° SSE
Delta 2 Rocket 4.0 23:21:10 10° SW 23:24:27 31° S 23:25:53 22° SE
Abrixas rocket 3.9 23:21:55 10° WNW 23:24:46 26° NNW 23:26:39 16° NE
Cosmos 1833 4.2 23:20:08 10° SSW 23:25:51 90° ESE 23:31:32 10° NNE
Cosmos 1315 Rocket 2.8 23:22:06 10° N 23:26:07 58° ENE 23:30:09 10° SSE
Cosmos 1842 Rocket 3.9 23:21:39 10° SSW 23:26:08 72° W 23:30:35 10° N
Cosmos 1626 2.8 23:22:27 10° NNW 23:26:08 57° W 23:29:48 10° S
Cosmos 2219 3.8 23:25:11 10° SSE 23:30:14 33° ESE 23:34:36 13° NE
Cosmos 2322 Rocket 3.6 23:25:14 10° NW 23:30:25 40° WSW 23:35:36 10° S
FengYun 1-2 T 4.3 23:27:58 10° SE 23:33:16 51° ENE 23:38:35 10° N
Cosmos 2221 2.5 23:29:05 10° S 23:33:18 58° E 23:37:35 10° NNE
DELTA 2 R/B (1) 3.6 23:27:52 10° W 23:33:27 78° S 23:36:42 26° ESE
Resurs 01 Rocket 3.3 23:36:11 17° NE 23:36:11 17° NE 23:37:53 10° NNE
Meteor 2-1 Rocket 4.4 23:29:07 10° S 23:34:53 83° W 23:40:48 10° N
Cosmos 1500 Rocket 4.2 23:36:45 10° NNW 23:41:02 57° W 23:45:15 10° S
Cosmos 2058 3.8 23:39:12 10° NNW 23:43:17 52° W 23:47:18 10° S
RESURS DK-1 2.3 23:39:28 10° NNW 23:43:37 84° WSW 23:47:00 15° SSE
Cosmos 921 Rocket 2.9 23:39:24 10° NNW 23:43:54 84° ENE 23:48:16 10° SSE
Cosmos 44 3.2 23:42:12 10° S 23:46:22 44° ESE 23:46:58 42° E
USA 234 4.5 23:43:39 19° ENE 23:46:41 27° NNE 23:51:59 10° NW
Lacrosse 5 rocket 4.1 23:48:47 10° NW 23:50:07 11° NNW 23:51:27 10° N
SJ-6B 2.7 23:50:20 54° E 23:50:29 54° ENE 23:54:08 10° N
Cosmos 2322 3.7 23:45:56 10° NNW 23:51:42 84° WSW 23:57:24 10° SSE
